Location: Ann Arbor
(42.2710°N, 83.7260°W)
Time: 14:38:18
(UTC-04:00)

Envisat - Visible Passes

Search period start: 20 July 2018 00:00
Search period end: 30 July 2018 00:00
Orbit: 764 x 766 km, 98.2° (Epoch: 20 July)

Date Brightness Start Highest point End Pass type
(mag) Time Alt. Az. Time Alt. Az. Time Alt. Az.
21 Jul 5.7 22:13:47 10° WSW 22:16:15 14° W 22:18:44 10° WNW visible
22 Jul 4.9 21:34:45 10° SSW 21:39:10 30° W 21:43:37 10° NW visible
24 Jul 5.6 22:01:39 10° SW 22:04:58 17° W 22:08:17 10° NW visible
25 Jul 4.6 21:23:15 10° SSW 21:27:56 37° W 21:32:39 10° NNW visible
27 Jul 5.4 21:49:49 10° SW 21:53:41 22° W 21:57:35 10° NW visible
29 Jul 5.8 22:17:33 10° WSW 22:19:33 12° W 22:21:33 10° WNW visible
